Regional Weather Roundup
Issued by NWS

Home | Current Version | Previous Version | Graphics & Text | Print | Product List | Glossary On
Versions: 1 2 3 4 5 6 7 8 9 10 11 12 13 14 15 16 17 18 19 20 21 22 23 24 25 26 27 28 29 30 31 32 33 34 35 36 37 38 39 40 41 42 43 44 45 46 47 48 49 50
000
ASUS44 KMEG 231110
RWRTN
TENNESSEE HOURLY STATE WEATHER ROUNDUP
NATIONAL WEATHER SERVICE MEMPHIS TN
600 AM CDT WED APR 23 2014

TNZ002-004-019-021-049-052-054-088>092-231200-
WEST TENNESSEE

CITY           SKY/WX    TMP DP  RH WIND       PRES   REMARKS
MEMPHIS INTL   CLEAR     51  41  68 E5        30.02R
NWS MEMPHIS      N/A     45 N/A N/A MISG        N/A
JACKSON        CLEAR     41  38  89 CALM      30.02R
DYERSBURG      CLEAR     48  36  61 CALM      30.04S
UNION CITY     CLEAR     46  37  71 CALM      30.03R
PARIS          CLEAR     42  36  79 CALM      30.03R
LEXINGTON      CLEAR     41  39  93 CALM      30.01R
SAVANNAH       CLEAR     41  41 100 CALM      30.01R
$$

TNZ008-025-027-028-033-062-065-066-231200-
NORTH MIDDLE TENNESSEE

CITY           SKY/WX    TMP DP  RH WIND       PRES   REMARKS
NASHVILLE      PTCLDY    48  38  68 N6        30.02R
DICKSON        CLEAR     48  36  61 NE7       30.01R
CLARKSVILLE    CLEAR     46  37  71 NE3       30.04R
SMYRNA         CLEAR     46  37  70 N7        30.03R
MURFREESBORO   CLEAR     46  40  79 CALM      30.00R
COOKEVILLE     CLEAR     45  36  70 CALM      30.00R
LIVINGSTON     CLEAR     44  30  58 NE10      30.00R
GALLATIN       CLEAR     46  35  65 N6        30.03R
CROSSVILLE     CLEAR     45  28  51 N6        29.99R
$$

TNZ061-075-076-078-094-096-097-231200-
SOUTH MIDDLE TENNESSEE

CITY           SKY/WX    TMP DP  RH WIND       PRES   REMARKS
LEWISBURG      CLEAR     41  39  92 CALM      29.99R
FAYETTEVILLE   CLEAR     48  38  68 N6        29.98R
TULLAHOMA      CLEAR     43  39  87 N3        29.99R
WINCHESTER     PTCLDY    39  39 100 CALM      29.99R
MCMINNVILLE    CLEAR     46  36  66 N8        30.00R
COLUMBIA       CLEAR     43  43 100 CALM      29.99R
SHELBYVILLE    CLEAR     43  39  87 N5        30.00R
$$

TNZ017-018-042-046-047-231200-
NORTHEAST TENNESSEE

CITY           SKY/WX    TMP DP  RH WIND       PRES   REMARKS
TRI CITIES     CLEAR     45  29  53 NW5       29.95R
ELIZABETHTON   SUNNY     45  30  57 CALM      29.94R
$$

TNZ012-013-036-069-073-074-231200-
CENTRAL EAST TENNESSEE

CITY           SKY/WX    TMP DP  RH WIND       PRES   REMARKS
KNOXVILLE      CLEAR     48  34  58 N6        29.97R
OAK RIDGE      CLEAR     49  31  49 CALM      29.99R
$$

TNZ083-085-099-231200-
SOUTHEAST TENNESSEE

CITY           SKY/WX    TMP DP  RH WIND       PRES   REMARKS
CHATTANOOGA    PTCLDY    50  42  74 CALM      29.95R
$$

SKY/WX REPORTED AS FAIR MEANS FEW OR NO CLOUDS BELOW
12 THOUSAND FEET.




USA.gov is the U.S. government's official web portal to all federal, state and local government web resources and services.